Location: Unspecified
(50.1700°N, 6.8600°E)
Time: 04:15:19
(UTC+00:00)

Lacrosse 5 - Pass Details

Date: 24 January 2019
Orbit: 713 x 725 km, 57.0° (Epoch: 11 February)

Event Time Altitude Azimuth Distance (km) Brightness Sun altitude
Exits shadow 03:59:22 32° 33° (NNE) 1,216 3.3 -31.4°
Drops below altitude 10° 04:02:47 10° 68° (ENE) 2,202 5.2 -30.9°
Sets 04:05:19 0° 77° (ENE) 3,124 6.3 -30.5°
